www.pogodaiklimat.ru

Погода и климат >> Архив погоды >> Чили >> Isla De Pascua


ПОГОДА в Isla De Pascua

  • Прогноз погоды в Isla De Pascua
  • Монитор погоды в Isla De Pascua
  • Климат города

АРХИВ ПОГОДЫ в Isla De Pascua

Время (UTC), дата Ветер
(напр.,м/с)
 
Видим.   Явления Облачность Т
(С)
Тd
(С)
f
(%)
Тe
(С)
Тes
(С)
Комфортность P
(гПа)
Po
(гПа)
Тmin
(С)
Tmax
(С)
R
(мм)
R24
(мм)
S
(см)
00 15.02 ЮВ 4 15 км 9/4 600 м
[Cu med, cong Ci]
+25.2 +19.9 72 +31 +32 очень
душно
1018.7 1013.7
03 15.02 Ю 2 15 км 8/5 750 м
[Cu med, cong Ac trans Ci fib]
+23.1 +19.3 79 +29 +29 очень
душно
1019.3 1014.2 +27.5
06 15.02 В 2 15 км 6/3 600 м
[Cu hum Ci fib]
+22.1 +19.7 86 +28 +28 душно 1019.6 1014.5
09 15.02 В 1 15 км 8/3 600 м
[Cu med, cong Ci fib]
+21.7 +19.8 89 +27 +27 душно 1017.7 1012.6
12 15.02 З 3 15 км 8/6 600 м
[Cu Sc Ci fib]
+23.8 +21.0 84 +30 +30 очень
душно
1016.7 1011.6
15 15.02 ЮЗ 2 н/о н/о -52.7 1017.4 1003.1
18 15.02 Ю 4 10 км 6/5 600 м
[Cu hum Ci fib]
+26.3 +21.2 74 +33 +40 очень
душно
1018.0 1013.0
21 15.02 ЮЗ 4 10 км 8/5 750 м
[Cu hum Ci fib]
+26.6 +21.2 72 +34 +39 очень
душно
1016.6 1011.6
00 16.02 ЮЗ 3 10 км 9/3 600 м
[St As trans]
+26.3 +21.4 74 +33 +34 очень
душно
1015.9 1010.9
03 16.02 ЮЗ 4 15 км 8/5 600 м
[Cu Sc Ac trans]
+24.7 +21.9 84 +32 +32 очень
душно
1016.9 1011.9 +27.8
06 16.02 Ю 3 15 км 9/9 600 м
[Cu Sc]
+24.2 +21.6 85 +31 +31 очень
душно
1017.9 1012.8
09 16.02 Ю 3 15 км {дождь} 9/9 600 м
[Cu Sc]
+23.1 +21.4 90 +31 +31 очень
душно
1016.9 1011.8
12 16.02 штиль 0 15 км {ливн. осадки} 8/6 600 м
[Cu Sc]
+22.1 +21.3 95 +29 +29 очень
душно
1016.8 1011.7
15 16.02 ЮВ 2 20 км {ливн. осадки} 4/1 750 м
[Cu hum Ci fib]
+25.5 +22.3 82 +33 +37 очень
душно
1018.4 1013.4 +21.4
18 16.02 В 4 20 км 8/6 600 м
[Cu med, cong Ci fib]
+27.5 +21.7 71 +35 +40 очень
душно
1019.4 1014.4
21 16.02 СЗ 3 20 км 8/8 600 м
[Cu med, cong]
+25.9 +22.1 80 +34 +37 очень
душно
1019.2 1014.2
00 17.02 З 2 20 км 9/4 750 м
[Sc Ci]
+25.9 +22.1 80 +34 +35 очень
душно
1018.5 1013.5
03 17.02 В 1 10 км 8/8 600 м
[Cu Sc]
+24.6 +21.6 83 +31 +31 очень
душно
1020.2 1015.1 +28.0
06 17.02 В 1 10 км 6/6 750 м
[Cu Sc]
+23.8 +21.5 87 +30 +30 очень
душно
1021.5 1016.4
09 17.02 штиль 0 10 км 8/8 600 м
[Cu Sc]
+23.5 +22.0 91 +30 +30 очень
душно
1020.9 1015.8
12 17.02 Ю 1 10 км 8/8 600 м
[Cu Sc]
+23.2 +21.9 92 +31 +31 очень
душно
1020.8 1015.7
15 17.02 В 3 15 км {ливн. осадки} 4/3 600 м
[Cu hum Cs]
+26.2 +21.9 77 +34 +37 очень
душно
1022.4 1017.4 +22.1
18 17.02 З 2 7000 м слабый ливневой дождь 8/8 450 м
[Cu med, cong]
+25.0 +21.8 82 +32 +36 очень
душно
1023.5 1018.4
21 17.02 С 4 15 км 8/8 600 м
[Cu Sc]
+24.7 +22.2 86 +32 +34 очень
душно
1023.1 1018.0
00 18.02 В 2 15 км 8/8 600 м
[Cu Sc]
+25.5 +21.7 80 +33 +33 очень
душно
1022.6 1017.5
03 18.02 З 2 15 км {ливн. осадки} 3/3 750 м
[Sc]
+23.3 +21.8 91 +32 +32 очень
душно
1023.7 1018.6 +27.8
06 18.02 Ю 2 15 км 3/3 600 м
[Sc]
+22.6 +21.4 93 +30 +30 очень
душно
1024.5 1019.4
09 18.02 штиль 0 15 км 8/8 1200 м
[Sc]
+22.6 +21.6 94 +30 +30 очень
душно
1023.1 1018.0
12 18.02 В 3 15 км 8/8 900 м
[Sc]
+23.7 +22.5 93 +31 +31 очень
душно
1022.2 1017.1
15 18.02 ЮВ 3 15 км {ливн. осадки} 6/6 600 м
[Cu Sc]
+25.7 +23.6 88 +35 +37 очень
душно
1023.7 1018.6 +21.3
18 18.02 В 6 15 км 5/5 600 м
[Cu Sc]
+28.5 +20.9 63 +36 +39 очень
душно
1024.1 1019.1
21 18.02 ЮВ 6 15 км 5/5 600 м
[Cu med, cong]
+28.1 +22.7 73 +37 +41 очень
душно
1023.2 1018.2
00 19.02 ЮВ 6 15 км 6/4 600 м
[Cu med, cong Ci fib]
+27.1 +22.2 75 +35 +36 очень
душно
1022.9 1017.9
03 19.02 В 5 15 км 8/6 600 м
[Cu Sc Ci fib]
+25.1 +22.1 83 +32 +32 очень
душно
1024.0 1018.9 +29.1
06 19.02 В 3 15 км 5/5 600 м
[Cu med, cong]
+24.5 +22.2 87 +32 +32 очень
душно
1024.1 1019.0
09 19.02 ЮВ 5 15 км 6/6 600 м
[Cu med, cong]
+24.4 +22.3 88 +32 +32 очень
душно
1022.2 1017.1
12 19.02 В 2 15 км 6/6 750 м
[Cu med, cong]
+24.5 +22.4 88 +32 +32 очень
душно
1021.4 1016.3
15 19.02 В 6 10 км в посл. час ливневой дождь 6/6 600 м
[Cu hum]
+25.4 +22.4 83 +33 +34 очень
душно
1022.6 1017.5 +23.9
18 19.02 ЮВ 6 10 км {ливн. осадки} 3/1 600 м
[Cu hum Ci fib]
+28.0 +21.2 67 +35 +42 очень
душно
1022.2 1017.2
21 19.02 В 5 10 км 5/5 750 м
[Cu Sc]
+27.1 +21.0 69 +34 +38 очень
душно
1021.3 1016.3
00 20.02 ЮВ 4 10 км 8/6 750 м
[Cu Sc Ci fib]
+27.1 +20.8 68 +34 +34 очень
душно
1020.6 1015.6
03 20.02 ЮВ 2 15 км 3/3 600 м
[Cu med, cong]
+23.5 +20.9 85 +29 +29 душно 1021.0 1015.9 +28.6
06 20.02 ЮВ 1 15 км 4/4 600 м
[Cu med, cong]
+21.8 +20.3 91 +28 +28 душно 1021.3 1016.2
09 20.02 ЮВ 1 15 км 4/4 600 м
[Cu med, cong]
+20.2 +18.9 92 +25 +25 комфорт 1019.8 1014.7
12 20.02 В 2 15 км 3/3 600 м
[Cu med, cong]
+20.6 +19.4 93 +26 +26 душно 1019.4 1014.3
15 20.02 ЮВ 3 20 км 4/4 600 м
[Cu med, cong]
+25.4 +21.8 80 +33 +35 очень
душно
1020.1 1015.1 +19.7
18 20.02 СЗ 4 20 км 5/5 600 м
[Cu med, cong]
+27.0 +21.6 72 +34 +41 очень
душно
1019.8 1014.8
21 20.02 СЗ 4 20 км 4/4 600 м
[Cu med, cong]
+27.5 +21.4 69 +35 +42 очень
душно
1019.1 1014.1
00 21.02 ЮЗ 3 20 км 6/6 600 м
[Cu med, cong]
+26.7 +21.3 72 +34 +35 очень
душно
1018.3 1013.3
03 21.02 ЮВ 2 10 км 3/3 600 м
[Cu hum]
+24.6 +20.6 78 +31 +31 очень
душно
1019.7 1014.6 +28.5
06 21.02 ЮВ 2 10 км {ливн. осадки} 3/3 750 м
[Cu hum]
+22.7 +20.3 86 +29 +29 очень
душно
1019.8 1014.7
09 21.02 В 1 10 км 3/3 600 м
[Cu hum]
+20.6 +19.3 92 +26 +26 душно 1018.9 1013.8
12 21.02 ЮВ 2 10 км 3/3 900 м
[Cu hum]
+20.3 +18.8 91 +25 +25 комфорт 1018.8 1013.7
15 21.02 В 1 15 км {ливн. осадки} 3/3 600 м
[Cu med, cong]
+26.0 +20.7 73 +33 +36 очень
душно
1020.3 1015.3 +19.4
18 21.02 З 4 15 км 6/6 750 м
[Cu med, cong]
+26.1 +20.5 71 +32 +37 очень
душно
1020.7 1015.7

 

Местоположение метеостанции Isla De Pascua (Чили): широта -27.16 долгота -109.40 высота над уровнем моря 69 м.

В архиве по умолчанию представлена погода в Isla De Pascua за последнюю неделю. Архивные данные за месяц целиком и за предыдущие месяцы, начиная с января 2011 года, Вы можете получить, выбрав интересующий диапазон дат из раскрывающегося списка и нажав кнопку "Ввод!".

Внимание! Время в таблицах - всемирное. Для получения местного времени необходимо прибавить поправку, которая в Isla De Pascua равна -4 ч.

Смотрите также архив погоды в соседних городах и на ближайших метеорологических станциях:

Пояснения к столбцам:

Ветер - указаны скорость ветра в м/с - средняя за 10 мин, порывы в срок и между сроками (в фигурных скобках) и направление, откуда дует ветер: С - северный, СВ - северо-восточный, В - восточный, ЮВ - юго-восточный, Ю - южный, ЮЗ - юго-западный, З - западный, СЗ - северо-западный.
Видимость - горизонтальная дальность видимости в метрах или километрах. При видимости от 1 до 10 км при отсутствии осадков обычно наблюдается дымка, при ухудшении видимости до 1 км и менее - туман. В сухую погоду видимость может ухудшаться дымом, пылью или мглою.
Явления - указаны атмосферные явления, наблюдавшиеся в срок или в последний час перед сроком; фигурными скобками обозначены явления, наблюдавшиеся между сроками (за 1-3 часа до срока); квадратными скобками обозначены град или гололедные отложения с указанием их диаметра в мм.
Облачность - указаны через наклонную черту общая и нижняя облачность в баллах и высота нижней границы облаков в метрах; квадратными скобками обозначены формы облаков: Ci - перистые, Cs - перисто-слоистые, Cc - перисто-кучевые, Ac - высококучевые, As - высокослоистые, Sc - слоисто-кучевые, Ns - слоисто-дождевые, Cu - кучевые, Cb - кучево-дождевые. Подробнее классификацию облаков см. в Атласе облаков (PDF).
T - Температура воздуха - температура, измеренная на высоте 2 м над землей.
Td - Температура точки росы - температура, при понижении до которой содержащийся в воздухе водяной пар достигнет насыщения.
f - Относительная влажность воздуха - влажноcть воздуха, измеренная на высоте 2 м над землей.
Te - Эффективная температура - температура, которую ощущает одетый по сезону человек в тени. Характеристика душности погоды. При расчете учитывается влияние влажности воздуха и скорости ветра на теплоощущения человека.
Tes - Эффективная температура на солнце - температура, которую ощущает человек, с поправкой на солнечный нагрев. Характеристика знойности погоды. Зависит от высоты солнца над горизонтом, облачности и скорости ветра. Ночью, в пасмурную погоду, а также при ветре 12 м/с и более поправка равна нулю.
P - Атмосферное давление - приведенное к уровню моря атмосферное давление.
Po - Атмосферное давление - измеренное на уровне метеостанции атмосферное давление.
Tmin - Минимальная температура - минимум температуры воздуха на высоте 2 м над землей.
Tmax - Максимальная температура - максимум температуры воздуха на высоте 2 м над землей.
R - Количество осадков - Количество выпавших осадков за период времени, мм. При наведении курсора мыши на число - период времени, за который выпало указанное количество осадков.
R24 - Количество осадков - Количество выпавших осадков за 24 часа, мм.
S - Снежный покров - Высота снежного покрова, см. При наведении курсора мыши на число - состояние снежного покрова и степень покрытия местности в баллах.